When you browse on this site, cookies collect data to enhance your experience and personalize the content and advertising you see.
Visit our Privacy Policy to learn more. By continuing to use the site, you agree to this use of cookies and data.
  • In United Kingdom
  • List of Countries
  • For 7 days
  • Water Temperature
  • Weather Map
  • Weather Widgets
  • user-avatar
    Login

    Hourly Weather Tyrgowishte

    Today, 19 October, Saturday

    Time Temperature Precipitation Wind Pressure Humidity
    00:00 +15°C° 0 mm 1 mps 745 mmHg 70%
    01:00 +15°C° 0 mm 1 mps 745 mmHg 73%
    02:00 +15°C° 0 mm 1 mps 745 mmHg 77%
    03:00 +15°C° 0 mm 1 mps 745 mmHg 78%
    04:00 +14°C° 0 mm 1 mps 745 mmHg 79%
    05:00 +14°C° 0 mm 1 mps 745 mmHg 80%
    06:00 +15°C° 0 mm 1 mps 746 mmHg 76%
    07:00 +16°C° 0 mm 1 mps 746 mmHg 72%
    08:00 +18°C° 0 mm 1 mps 746 mmHg 67%
    09:00 +20°C° 0 mm 1 mps 746 mmHg 59%
    10:00 +23°C° 0 mm 1 mps 747 mmHg 51%
    11:00 +25°C° 0 mm 1 mps 747 mmHg 42%
    12:00 +26°C° 0 mm 2 mps 746 mmHg 39%
    13:00 +26°C° 0 mm 2 mps 746 mmHg 36%
    14:00 +27°C° 0 mm 2 mps 746 mmHg 33%
    15:00 +26°C° 0 mm 2 mps 746 mmHg 38%
    16:00 +25°C° 0 mm 2 mps 746 mmHg 43%
    17:00 +23°C° 0 mm 2 mps 745 mmHg 48%
    18:00 +21°C° 0 mm 2 mps 746 mmHg 58%
    19:00 +19°C° 0 mm 2 mps 746 mmHg 67%
    20:00 +17°C° 0 mm 2 mps 746 mmHg 77%
    21:00 +17°C° 0 mm 2 mps 746 mmHg 80%
    22:00 +16°C° 0 mm 2 mps 747 mmHg 83%
    23:00 +16°C° 0 mm 2 mps 747 mmHg 87%

    Tomorrow, 20 October, Sunday

    Time Temperature Precipitation Wind Pressure Humidity
    00:00 +16°C° 0 mm 1 mps 747 mmHg 87%
    01:00 +15°C° 0 mm 1 mps 747 mmHg 88%
    02:00 +15°C° 0 mm 1 mps 747 mmHg 88%
    03:00 +15°C° 0 mm 1 mps 747 mmHg 88%
    04:00 +15°C° 0 mm 1 mps 747 mmHg 87%
    05:00 +14°C° 0 mm 1 mps 747 mmHg 87%
    06:00 +15°C° 0 mm 1 mps 747 mmHg 83%
    07:00 +16°C° 0 mm 1 mps 747 mmHg 79%
    08:00 +18°C° 0 mm 1 mps 748 mmHg 74%
    09:00 +20°C° 0 mm 1 mps 748 mmHg 65%
    10:00 +21°C° 0 mm 2 mps 748 mmHg 55%
    11:00 +25°C° 0 mm 2 mps 748 mmHg 46%
    12:00 +26°C° 0 mm 2 mps 748 mmHg 43%
    13:00 +27°C° 0 mm 2 mps 748 mmHg 39%
    14:00 +27°C° 0 mm 2 mps 748 mmHg 36%
    15:00 +26°C° 0 mm 2 mps 747 mmHg 41%
    16:00 +24°C° 0 mm 2 mps 747 mmHg 46%
    17:00 +23°C° 0 mm 2 mps 747 mmHg 51%
    18:00 +20°C° 0 mm 2 mps 747 mmHg 59%
    19:00 +19°C° 0 mm 2 mps 748 mmHg 66%
    20:00 +17°C° 0 mm 2 mps 748 mmHg 74%
    21:00 +17°C° 0 mm 2 mps 748 mmHg 77%
    22:00 +16°C° 0 mm 2 mps 748 mmHg 80%
    23:00 +16°C° 0 mm 1 mps 748 mmHg 84%

    Day after tomorrow, 21 October, Monday

    Time Temperature Precipitation Wind Pressure Humidity
    00:00 +15°C° 0 mm 1 mps 748 mmHg 85%
    01:00 +15°C° 0 mm 1 mps 748 mmHg 86%
    02:00 +15°C° 0 mm 1 mps 748 mmHg 87%
    03:00 +14°C° 0 mm 1 mps 748 mmHg 86%
    04:00 +14°C° 0 mm 1 mps 748 mmHg 86%
    05:00 +14°C° 0 mm 1 mps 748 mmHg 86%
    06:00 +15°C° 0 mm 1 mps 748 mmHg 81%
    07:00 +16°C° 0 mm 1 mps 748 mmHg 77%
    08:00 +16°C° 0 mm 1 mps 748 mmHg 72%
    09:00 +20°C° 0 mm 1 mps 749 mmHg 62%
    10:00 +22°C° 0 mm 1 mps 749 mmHg 51%
    11:00 +24°C° 0 mm 2 mps 749 mmHg 41%
    12:00 +25°C° 0 mm 2 mps 749 mmHg 38%
    13:00 +26°C° 0 mm 2 mps 749 mmHg 36%
    14:00 +27°C° 0 mm 2 mps 749 mmHg 33%
    15:00 +25°C° 0 mm 2 mps 748 mmHg 39%
    16:00 +24°C° 0 mm 2 mps 748 mmHg 44%
    17:00 +21°C° 0 mm 2 mps 748 mmHg 50%
    18:00 +20°C° 0 mm 2 mps 748 mmHg 57%
    19:00 +19°C° 0 mm 1 mps 748 mmHg 64%
    20:00 +18°C° 0 mm 1 mps 748 mmHg 70%
    21:00 +16°C° 0 mm 1 mps 748 mmHg 72%
    22:00 +16°C° 0 mm 1 mps 748 mmHg 75%
    23:00 +15°C° 0 mm 1 mps 748 mmHg 77%

    22 October, Tuesday

    Time Temperature Precipitation Wind Pressure Humidity
    00:00 +15°C° 0 mm 1 mps 748 mmHg 78%
    01:00 +14°C° 0 mm 0 mps 748 mmHg 78%
    02:00 +13°C° 0 mm 0 mps 748 mmHg 79%
    03:00 +13°C° 0 mm 0 mps 748 mmHg 79%
    04:00 +13°C° 0 mm 0 mps 748 mmHg 79%
    05:00 +13°C° 0 mm 0 mps 748 mmHg 79%
    06:00 +14°C° 0 mm 0 mps 748 mmHg 74%
    07:00 +15°C° 0 mm 0 mps 749 mmHg 70%
    08:00 +16°C° 0 mm 0 mps 749 mmHg 65%
    09:00 +20°C° 0 mm 1 mps 749 mmHg 56%
    10:00 +22°C° 0 mm 1 mps 749 mmHg 47%
    11:00 +24°C° 0 mm 1 mps 749 mmHg 38%
    12:00 +25°C° 0 mm 2 mps 749 mmHg 36%
    13:00 +25°C° 0 mm 2 mps 749 mmHg 34%
    14:00 +26°C° 0 mm 3 mps 749 mmHg 31%
    15:00 +25°C° 0 mm 2 mps 748 mmHg 35%
    16:00 +24°C° 0 mm 2 mps 748 mmHg 39%
    17:00 +21°C° 0 mm 2 mps 748 mmHg 43%
    18:00 +20°C° 0 mm 2 mps 748 mmHg 47%
    19:00 +18°C° 0 mm 2 mps 748 mmHg 52%
    20:00 +18°C° 0 mm 1 mps 748 mmHg 57%
    21:00 +16°C° 0 mm 1 mps 749 mmHg 59%
    22:00 +15°C° 0 mm 1 mps 749 mmHg 62%
    23:00 +14°C° 0 mm 1 mps 749 mmHg 65%

    23 October, Wednesday

    Time Temperature Precipitation Wind Pressure Humidity
    00:00 +13°C° 0 mm 0 mps 749 mmHg 67%
    01:00 +12°C° 0 mm 0 mps 749 mmHg 68%
    02:00 +12°C° 0 mm 0 mps 749 mmHg 70%
    03:00 +12°C° 0 mm 0 mps 749 mmHg 72%
    04:00 +11°C° 0 mm 0 mps 748 mmHg 73%
    05:00 +11°C° 0 mm 0 mps 748 mmHg 75%
    06:00 +13°C° 0 mm 1 mps 749 mmHg 72%
    07:00 +14°C° 0 mm 1 mps 749 mmHg 70%
    08:00 +14°C° 0 mm 1 mps 749 mmHg 67%
    09:00 +16°C° 0 mm 1 mps 749 mmHg 58%
    10:00 +19°C° 0 mm 2 mps 749 mmHg 49%
    11:00 +21°C° 0 mm 3 mps 749 mmHg 40%
    12:00 +22°C° 0 mm 3 mps 749 mmHg 37%
    13:00 +24°C° 0 mm 3 mps 748 mmHg 33%
    14:00 +25°C° 0 mm 3 mps 748 mmHg 30%
    15:00 +23°C° 0 mm 2 mps 748 mmHg 34%
    16:00 +21°C° 0 mm 2 mps 748 mmHg 37%
    17:00 +21°C° 0 mm 1 mps 748 mmHg 41%
    18:00 +19°C° 0 mm 1 mps 748 mmHg 46%
    19:00 +18°C° 0 mm 1 mps 748 mmHg 51%
    20:00 +15°C° 0 mm 1 mps 748 mmHg 56%
    21:00 +15°C° 0 mm 1 mps 748 mmHg 59%
    22:00 +14°C° 0 mm 1 mps 748 mmHg 63%
    23:00 +13°C° 0 mm 1 mps 748 mmHg 66%

    24 October, Thursday

    Time Temperature Precipitation Wind Pressure Humidity
    00:00 +13°C° 0 mm 1 mps 748 mmHg 68%
    01:00 +11°C° 0 mm 0 mps 748 mmHg 69%
    02:00 +11°C° 0 mm 0 mps 748 mmHg 70%
    03:00 +11°C° 0 mm 0 mps 748 mmHg 69%
    04:00 +10°C° 0 mm 0 mps 747 mmHg 68%
    05:00 +10°C° 0 mm 0 mps 747 mmHg 66%
    06:00 +11°C° 0 mm 0 mps 747 mmHg 62%
    07:00 +12°C° 0 mm 0 mps 747 mmHg 57%
    08:00 +13°C° 0 mm 0 mps 748 mmHg 52%
    09:00 +18°C° 0 mm 1 mps 748 mmHg 46%
    10:00 +20°C° 0 mm 1 mps 748 mmHg 39%
    11:00 +21°C° 0 mm 2 mps 748 mmHg 32%
    12:00 +23°C° 0 mm 2 mps 747 mmHg 32%
    13:00 +24°C° 0 mm 2 mps 747 mmHg 32%
    14:00 +25°C° 0 mm 2 mps 747 mmHg 32%
    15:00 +24°C° 0 mm 2 mps 747 mmHg 36%
    16:00 +21°C° 0 mm 2 mps 746 mmHg 40%
    17:00 +20°C° 0 mm 2 mps 746 mmHg 45%
    18:00 +18°C° 0 mm 2 mps 746 mmHg 50%
    19:00 +17°C° 0 mm 2 mps 746 mmHg 56%
    20:00 +15°C° 0 mm 1 mps 747 mmHg 62%
    21:00 +15°C° 0 mm 1 mps 747 mmHg 63%
    22:00 +14°C° 0 mm 1 mps 747 mmHg 65%
    23:00 +14°C° 0 mm 1 mps 747 mmHg 66%
    Show more